Location: Geroldsau
(48.7259°N, 8.2466°E)
Time: 10:18:39
(UTC+00:00)

Meteor 2-2 Rocket - Pass Details

Date: 20 June 2021
Orbit: 852 x 928 km, 81.3° (Epoch: 03 August)

Event Time Altitude Azimuth Distance (km) Brightness Sun altitude
Rises 00:47:36 0° 345° (NNW) 3,584 8.4 -15.7°
Reaches altitude 10° 00:50:06 10° 343° (NNW) 2,641 7.6 -15.6°
Maximum altitude 00:56:03 63° 264° (W) 1,034 4.5 -15.2°
Enters shadow 01:00:05 21° 189° (S) 1,943 5.5 -15.0°
